TimeCST,TemperatureF,Dew PointF,Humidity,Sea Level PressureIn,VisibilityMPH,Wind Direction,Wind SpeedMPH,Gust SpeedMPH,PrecipitationIn,Events,Conditions,WindDirDegrees,DateUTC
12:15 AM,41.0,33.8,76,30.31,10.0,SSW,3.5,-,N/A,,Clear,200,2012-11-19 06:15:00
12:35 AM,42.8,32.0,66,30.30,10.0,South,4.6,-,N/A,,Clear,190,2012-11-19 06:35:00
12:55 AM,42.8,32.0,66,30.30,10.0,SSW,3.5,-,N/A,,Clear,210,2012-11-19 06:55:00
1:15 AM,42.8,32.0,66,30.29,10.0,South,3.5,-,N/A,,Clear,190,2012-11-19 07:15:00
1:35 AM,42.8,32.0,66,30.30,10.0,South,3.5,-,N/A,,Clear,190,2012-11-19 07:35:00
1:55 AM,41.0,32.0,70,30.30,10.0,South,3.5,-,N/A,,Clear,180,2012-11-19 07:55:00
2:15 AM,41.0,32.0,70,30.30,10.0,South,3.5,-,N/A,,Clear,170,2012-11-19 08:15:00
2:35 AM,41.0,32.0,70,30.29,10.0,South,3.5,-,N/A,,Clear,170,2012-11-19 08:35:00
2:55 AM,39.2,32.0,75,30.28,10.0,Calm,Calm,-,N/A,,Clear,0,2012-11-19 08:55:00
3:15 AM,39.2,32.0,75,30.28,10.0,Calm,Calm,-,N/A,,Clear,0,2012-11-19 09:15:00
3:35 AM,41.0,32.0,70,30.28,10.0,Calm,Calm,-,N/A,,Clear,0,2012-11-19 09:35:00
3:55 AM,35.6,32.0,87,30.28,10.0,Calm,Calm,-,N/A,,Clear,0,2012-11-19 09:55:00
4:15 AM,37.4,32.0,81,30.28,10.0,Calm,Calm,-,N/A,,Clear,0,2012-11-19 10:15:00
4:35 AM,37.4,32.0,81,30.28,10.0,SE,3.5,-,N/A,,Clear,140,2012-11-19 10:35:00
4:55 AM,35.6,32.0,87,30.28,10.0,Calm,Calm,-,N/A,,Clear,0,2012-11-19 10:55:00
5:15 AM,33.8,32.0,93,30.28,10.0,Calm,Calm,-,N/A,,Clear,0,2012-11-19 11:15:00
5:35 AM,33.8,32.0,93,30.27,10.0,Calm,Calm,-,N/A,,Clear,0,2012-11-19 11:35:00
5:55 AM,37.4,32.0,81,30.27,10.0,Calm,Calm,-,N/A,,Clear,0,2012-11-19 11:55:00
6:45 AM,37.4,30.2,75,30.26,10.0,Calm,Calm,-,N/A,,Clear,0,2012-11-19 12:45:00
7:45 AM,39.2,33.8,81,30.26,10.0,Calm,Calm,-,N/A,,Mostly Cloudy,0,2012-11-19 13:45:00
8:45 AM,42.8,33.8,70,30.26,10.0,Calm,Calm,-,N/A,,Scattered Clouds,0,2012-11-19 14:45:00
9:45 AM,46.4,33.8,62,30.25,10.0,SSW,5.8,-,N/A,,Clear,210,2012-11-19 15:45:00
10:45 AM,48.2,33.8,58,30.24,10.0,Calm,Calm,-,N/A,,Mostly Cloudy,0,2012-11-19 16:45:00
11:45 AM,51.8,33.8,50,30.20,10.0,South,5.8,-,N/A,,Scattered Clouds,180,2012-11-19 17:45:00
12:45 PM,55.4,33.8,44,30.18,10.0,SSE,6.9,-,N/A,,Clear,160,2012-11-19 18:45:00
1:45 PM,53.6,33.8,47,30.16,10.0,South,6.9,-,N/A,,Clear,180,2012-11-19 19:45:00
2:45 PM,53.6,35.6,51,30.14,10.0,SSE,5.8,-,N/A,,Mostly Cloudy,150,2012-11-19 20:45:00
3:45 PM,51.8,37.4,58,30.14,7.0,SE,4.6,-,N/A,,Overcast,130,2012-11-19 21:45:00
4:45 PM,50.0,37.4,62,30.13,7.0,SE,3.5,-,N/A,,Overcast,140,2012-11-19 22:45:00
5:50 PM,50.0,39.2,66,30.12,10.0,SE,4.6,-,N/A,,Overcast,140,2012-11-19 23:50:00
6:50 PM,48.2,39.2,71,30.13,7.0,Calm,Calm,-,N/A,Rain,Light Rain,0,2012-11-20 00:50:00
7:50 PM,46.4,42.8,87,30.13,7.0,Calm,Calm,-,N/A,Rain,Light Rain,0,2012-11-20 01:50:00
8:15 PM,46.4,42.8,87,30.14,5.0,Calm,Calm,-,N/A,Rain,Light Rain,0,2012-11-20 02:15:00
8:35 PM,46.4,42.8,87,30.13,5.0,ENE,3.5,-,0.01,Rain,Rain,70,2012-11-20 02:35:00
8:45 PM,46.4,44.6,93,30.13,4.0,ENE,4.6,-,N/A,Rain,Light Rain,70,2012-11-20 02:45:00
9:15 PM,46.4,42.8,87,30.13,4.0,Calm,Calm,-,0.01,,Drizzle,0,2012-11-20 03:15:00
9:35 PM,44.6,42.8,93,30.12,3.0,Calm,Calm,-,0.01,,Overcast,0,2012-11-20 03:35:00
9:55 PM,44.6,42.8,93,30.12,2.5,Calm,Calm,-,0.01,,Overcast,0,2012-11-20 03:55:00
10:15 PM,46.4,42.8,87,30.11,4.0,Calm,Calm,-,N/A,,Overcast,0,2012-11-20 04:15:00
10:35 PM,46.4,42.8,87,30.11,5.0,Calm,Calm,-,N/A,,Overcast,0,2012-11-20 04:35:00
10:55 PM,46.4,42.8,87,30.11,5.0,Calm,Calm,-,N/A,,Overcast,0,2012-11-20 04:55:00
11:15 PM,46.4,42.8,87,30.10,5.0,Calm,Calm,-,N/A,,Overcast,0,2012-11-20 05:15:00
11:35 PM,46.4,42.8,87,30.10,5.0,Calm,Calm,-,N/A,,Overcast,0,2012-11-20 05:35:00
11:55 PM,46.4,42.8,87,30.09,7.0,SSW,3.5,-,N/A,,Overcast,210,2012-11-20 05:55:00